Find Starlink 30761

NORAD ID: 58134 Int'l Des: 2023-162 Owner: SPXS Country: US Constellation: starlink operational
LEOCIRCULAR

实时位置

正在加载3D地球...

关于 Starlink 30761

正在加载描述...

即将过境

Passes for default location (London). Set your location on the main map for personalized predictions.

高度历史

Loading altitude history...

两行轨道根数

1 58134U 23162S 26106.53517088 .00001262 00000-0 55375-4 0 9997
2 58134 43.0037 278.8672 0001452 271.5768 88.4918 15.27574371138099
Epoch: Apr 16, 2026 • Age: 31 hours

当前状态

高度 493.5 km
速度 7.62 km/s
星下点 -38.12°S, 6.57°E
发射日期 Oct 22, 2023
运行时间 2.4 years
类型 internet

技术详情

分类 Payload
质量 730.00 kg
干质量 700.00 kg
总质量 730.00 kg
长度 0.30 m
直径 4.10 m
跨度 29.00 m
形状 Box + pan
制造商 SPXS
平台类型 Starlink V2M
阶段状态 In Orbit
所有者/国家 SPXS/US

Most Searched